User: anonymous   Login
Location: Unspecified
(51.0950°N, 12.9690°E)
Time: 19:27:18
(UTC+00:00)
Language:

VELOX 1 - Orbit

View from above orbital plane
View from above orbital plane
View from above satellite
View from above satellite

Ground track
Ground track

The orbit data is extracted from the following two-line orbital elements,

1 40057U 14034E   24113.41149461  .00011915  00000-0  13927-2 0  9990
2 40057  98.3490 325.8986 0008383 330.1120  29.9614 14.85250510529428
Epoch (UTC): 22 April 2024 09:52:33
Eccentricity: 0.0008383
inclination: 98.3490°
perigee height: 607 km
apogee height: 618 km
right ascension of ascending node: 325.8986°
argument of perigee: 330.1120°
revolutions per day: 14.85250510
mean anomaly at epoch: 29.9614°
orbit number at epoch: 52942

The dashed part of the orbit path shows where the satellite is in the earth's shadow,  

DLR